{"data":{"norad_id":48603,"epoch":"2026-09-19T15:24:10.319904Z","epoch_age_seconds":92463,"freshness":"FRESH","line1":"1 48603U 21041BC  26262.64178611 -.00000020  00000+0  11104-4 0  9994","line2":"2 48603  53.1591 292.8520 0001123 120.2507 239.8606 15.31704812296406","mean_motion":15.31704812,"eccentricity":0.0001123,"inclination_deg":53.1591,"raan_deg":292.852,"arg_perigee_deg":120.2507,"mean_anomaly_deg":239.8606,"bstar":1.1104e-5,"rev_number":29640,"period_min":94.012892609493,"perigee_km":469.9565236659,"apogee_km":471.4947782173,"semimajor_km":6848.8626509416,"source":"CELESTRAK","updated_at":"2026-09-20T09:00:39.139098Z"}}